This is the latest recevied weather packets stored in our database for station/object I2HLY-3. If no packets are shown the sender has not sent any weather packets the latest 10 day(s).
| Time | Temp. | Humidity | Pressure | Rain* | Wind** | Luminosity | Snow |
|---|---|---|---|---|---|---|---|
| 1777357040 | 16.11° C | 86% | 1014.3 hPa | 0 mm | - | - | - |
| 1777356143 | 14.44° C | 92% | 1014.2 hPa | 0 mm | - | - | - |
| 1777355245 | 13.33° C | 93% | 1014 hPa | 0 mm | - | - | - |
| 1777354347 | 12.22° C | 93% | 1013.8 hPa | 0 mm | - | - | - |
| 1777353448 | 11.67° C | 93% | 1013.9 hPa | 0 mm | - | - | - |
| 1777352554 | 11.67° C | 93% | 1013.8 hPa | 0 mm | - | - | - |
| 1777351655 | 11.67° C | 93% | 1013.6 hPa | 0 mm | - | - | - |
| 1777350737 | 11.67° C | 93% | 1013.4 hPa | 0 mm | - | - | - |
| 1777349841 | 11.11° C | 93% | 1013.3 hPa | 0 mm | - | - | - |
| 1777348943 | 11.11° C | 93% | 1013.2 hPa | 0 mm | - | - | - |
| 1777348042 | 11.67° C | 93% | 1013.2 hPa | 0 mm | - | - | - |
| 1777347148 | 11.67° C | 92% | 1013.3 hPa | 0 mm | - | - | - |
| 1777346250 | 11.67° C | 92% | 1013.4 hPa | 0 mm | - | - | - |
| 1777345352 | 11.67° C | 92% | 1013.5 hPa | 0 mm | - | - | - |
| 1777344438 | 11.67° C | 92% | 1013.5 hPa | 0 mm | - | - | - |
| 1777343540 | 12.22° C | 91% | 1013.5 hPa | 0 mm | - | - | - |
| 1777342641 | 12.22° C | 91% | 1013.7 hPa | 0 mm | - | - | - |
| 1777341746 | 12.22° C | 91% | 1013.8 hPa | 0 mm | - | - | - |
| 1777340849 | 12.78° C | 90% | 1013.7 hPa | 0 mm | - | - | - |
| 1777339950 | 12.78° C | 90% | 1013.8 hPa | 0 mm | - | - | - |
| 1777339053 | 13.33° C | 88% | 1013.8 hPa | 0 mm | - | - | - |
| 1777338155 | 13.33° C | 88% | 1013.9 hPa | 0 mm | - | - | - |
| 1777337256 | 13.89° C | 88% | 1014 hPa | 0 mm | - | - | - |
| 1777336340 | 13.89° C | 87% | 1014 hPa | 0 mm | - | - | - |
| 1777335440 | 13.33° C | 87% | 1014.2 hPa | 0 mm | - | - | - |
* Rain latest hour (hover to see other rain measurements)
** Current wind speed in m/s (hover to see current wind gust speed)